Regional Weather Roundup
Issued by NWS Sioux Falls, SD

Home | Current Version | Previous Version | Graphics & Text | Print | Product List | Glossary On
Versions: 1 2 3 4 5 6 7 8 9 10 11 12 13 14 15 16 17 18 19 20 21 22 23 24 25 26 27 28 29 30 31 32 33 34 35 36 37 38 39 40 41 42 43 44 45 46 47 48 49 50
000
ASUS43 KFSD 091910
RWRFSD

WEATHER ROUNDUP FOR SE SOUTH DAKOTA/SW MINNESOTA/NW IOWA
NATIONAL WEATHER SERVICE SIOUX FALLS SD
100 PM CST TUE FEB 09 2016

NOTE: "FAIR" INDICATES FEW OR NO CLOUDS BELOW 12,000 FEET WITH NO
SIGNIFICANT WEATHER AND OR OBSTRUCTIONS TO VISIBILITY.


SDZ038>040-050-052>070-092000-
SOUTHEAST SOUTH DAKOTA

CITY           SKY/WX    TMP DP  RH WIND       PRES   REMARKS
BROOKINGS      CLOUDY    18   8  65 NW14      30.19F WCI   4
CHAMBERLAIN    MOSUNNY   30  10  44 W6        30.26F WCI  24
HURON          PTSUNNY   26  10  50 NW10      30.26F WCI  16
MADISON        FAIR      18   9  68 NW17      30.21F WCI   2
MITCHELL       MOSUNNY   26  11  52 NW12      30.28F WCI  16
SIOUX FALLS    CLOUDY    19   9  65 NW15      30.22F WCI   5
WINNER         CLOUDY    30   9  41 SW10      30.24F WCI  21
YANKTON        CLOUDY    25   9  50 NW18      30.27F WCI  11
$$

MNZ071-072-080-081-089-090-097-098-092000-
SOUTHWEST MINNESOTA

CITY           SKY/WX    TMP DP  RH WIND       PRES   REMARKS
FAIRMONT       SUNNY     12   3  67 NW20G25   30.13F WCI  -6
JACKSON        SUNNY     14   5  67 NW24G30   30.14S WCI  -5
LUVERNE        CLOUDY    19   9  63 N13       30.21F WCI   7
MARSHALL       CLOUDY    15   6  67 N23       30.20F WCI  -3
MONTEVIDEO     CLOUDY    16   9  73 N17       30.23F WCI   0
PIPESTONE        N/A     19   1  45 N16G23    30.17F WCI   5
REDWOOD FALLS  PTSUNNY   17   5  59 NW16G25   30.18F WCI   2
TRACY          SUNNY     16   8  70 NW20G26   30.19F WCI  -1
WINDOM         SUNNY     12   7  79 NW23      30.15F WCI  -7
WORTHINGTON    CLOUDY    14   3  62 NW20      30.17F WCI  -3
$$

IAZ001>003-012>014-020>022-031-032-NEZ013-014-SDZ071-092000-
NORTHWEST IOWA

CITY           SKY/WX    TMP DP  RH WIND       PRES   REMARKS
CHEROKEE       PTSUNNY   15   5  66 NW16G23   30.22F WCI  -1
DENISON        SUNNY     14   5  67 N17G23    30.20S WCI  -3
ESTHERVILLE    SUNNY     13   4  67 NW25      30.15F WCI  -7
LE MARS        CLOUDY    18   9  68 NW13      30.26F WCI   4
ORANGE CITY    CLOUDY    16   7  67 NW16G23   30.21F WCI   0
SHELDON        CLOUDY    14   5  67 NW18      30.19F WCI  -3
SIOUX CITY     CLOUDY    20   7  57 NW12      30.25F WCI   8
SPENCER        MOSUNNY   14   4  64 NW24      30.18F WCI  -5
STORM LAKE     SUNNY     14   5  67 NW17G24   30.18F WCI  -3
$$

ABBREVIATIONS USED IN REMARKS
   TC - TEMPERATURE IN CELSIUS
  WCI - WIND CHILL INDEX
   HX - HEAT INDEX
  VSB - VISIBILITY




USA.gov is the U.S. government's official web portal to all federal, state and local government web resources and services.